FW6366 Weather Reports


Display with metric or nautical units.
time (UTC)temp
F
wind
direction
speed
MPH
gust
MPH
rain 1hr
in
rain 24hr
in
rain mn
in
humidity
%
barometer
mb
20260902220558 67 302 0.0 4.0 0.00 0.00 0.00 85 1019.6
20260902220107 67 330 1.0 4.0 0.00 0.00 0.00 85 1019.4
20260902215558 68 104 1.0 4.0 0.00 0.00 0.00 84 1019.5
20260902215057 68 343 0.0 5.0 0.00 0.00 0.00 84 1019.6
20260902214605 68 278 1.0 5.0 0.00 0.00 0.00 84 1019.7
20260902214058 68 328 0.0 2.0 0.00 0.00 0.00 84 1019.8
20260902213558 68 299 0.0 4.0 0.00 0.00 0.00 84 1019.8
20260902213129 68 345 1.0 5.0 0.00 0.00 0.00 84 1019.7
20260902212600 68 0 1.0 5.0 0.00 0.00 0.00 83 1019.7
20260902212059 68 288 1.0 3.0 0.00 0.00 0.00 84 1019.8
20260902211604 68 0 0.0 4.0 0.00 0.00 0.00 83 1019.7
20260902211059 68 248 0.0 10.0 0.00 0.00 0.00 82 1019.6
20260902210559 68 0 1.0 10.0 0.00 0.00 0.00 82 1019.5
20260902210104 68 250 3.0 10.0 0.00 0.00 0.00 81 1019.7
20260902205557 69 196 1.0 7.0 0.00 0.00 0.00 82 1019.8
20260902205058 69 142 1.0 12.0 0.00 0.00 0.00 81 1019.7
20260902204604 69 197 2.0 15.0 0.00 0.00 0.00 81 1019.8
20260902204101 69 138 4.0 15.0 0.00 0.00 0.00 81 1019.6
20260902203601 68 113 3.0 10.0 0.00 0.00 0.00 82 1019.7
20260902203108 68 172 2.0 9.0 0.00 0.00 0.00 81 1019.8
20260902202558 68 0 2.0 12.0 0.00 0.00 0.00 82 1019.9
20260902202057 68 183 4.0 14.0 0.00 0.00 0.00 81 1019.9
20260902201610 68 281 4.0 14.0 0.00 0.00 0.00 81 1019.9
20260902201059 68 187 5.0 14.0 0.00 0.00 0.00 81 1019.8
20260902200559 68 130 5.0 13.0 0.00 0.00 0.00 81 1019.9
20260902200135 68 165 4.0 16.0 0.00 0.00 0.00 81 1019.8
20260902195557 68 191 1.0 16.0 0.00 0.00 0.00 81 1019.8
20260902195057 69 176 3.0 9.0 0.00 0.00 0.00 83 1019.9
20260902194609 69 172 1.0 7.0 0.00 0.00 0.00 83 1020.0
20260902194101 69 160 1.0 7.0 0.00 0.00 0.00 82 1020.1
20260902193601 69 155 1.0 7.0 0.00 0.00 0.00 82 1020.2
20260902193104 68 150 1.0 5.0 0.00 0.00 0.00 82 1020.1
20260902192559 68 178 0.0 4.0 0.00 0.00 0.00 83 1020.1
20260902192057 68 72 0.0 8.0 0.00 0.00 0.00 83 1020.4
20260902191609 68 0 2.0 8.0 0.00 0.00 0.00 82 1020.5
20260902191059 68 319 1.0 8.0 0.00 0.00 0.00 81 1020.6
20260902190559 69 193 2.0 8.0 0.00 0.00 0.00 81 1020.5
20260902190114 69 0 3.0 8.0 0.00 0.00 0.00 81 1020.5
20260902185602 69 93 1.0 12.0 0.00 0.00 0.00 82 1020.5
20260902185100 69 145 2.0 12.0 0.00 0.00 0.00 81 1020.5
20260902184603 69 178 4.0 10.0 0.00 0.00 0.00 80 1020.4
20260902184058 69 224 4.0 12.0 0.00 0.00 0.00 80 1020.4
20260902183602 69 182 3.0 12.0 0.00 0.00 0.00 79 1020.5
20260902183119 70 175 4.0 10.0 0.00 0.00 0.00 79 1020.3
20260902182559 70 121 3.0 10.0 0.00 0.00 0.00 80 1020.3
20260902182059 69 146 1.0 10.0 0.00 0.00 0.00 79 1020.5
20260902181605 69 142 4.0 10.0 0.00 0.00 0.00 79 1020.5
20260902181059 70 84 2.0 7.0 0.00 0.00 0.00 79 1020.5
20260902180559 70 168 1.0 8.0 0.00 0.00 0.00 80 1020.6
20260902180131 70 142 3.0 9.0 0.00 0.00 0.00 79 1020.7
20260902175600 70 141 3.0 9.0 0.00 0.01 0.00 78 1020.6
20260902175059 70 160 1.0 5.0 0.00 0.01 0.00 80 1020.6
20260902174609 69 0 1.0 7.0 0.00 0.01 0.00 78 1020.6
20260902174059 69 0 1.0 7.0 0.00 0.01 0.00 77 1020.6
20260902173558 69 121 3.0 7.0 0.00 0.01 0.00 80 1020.5
20260902173103 69 131 2.0 7.0 0.00 0.01 0.00 79 1020.5
20260902172557 69 87 1.0 10.0 0.00 0.01 0.00 79 1020.5
20260902172100 69 195 2.0 11.0 0.00 0.01 0.00 77 1020.6
20260902171608 69 79 4.0 15.0 0.00 0.01 0.00 77 1020.6
20260902171100 69 153 4.0 15.0 0.00 0.01 0.00 78 1020.6
20260902170558 69 151 4.0 15.0 0.00 0.01 0.00 78 1020.7
20260902165559 69 99 3.0 12.0 0.00 0.01 0.00 78 1020.7
20260902165059 69 134 2.0 12.0 0.00 0.01 0.00 77 1020.7
20260902164619 69 184 3.0 8.0 0.00 0.01 0.00 78 1020.6
20260902164100 69 159 2.0 8.0 0.00 0.01 0.00 77 1020.7
20260902163600 69 145 2.0 8.0 0.00 0.01 0.00 81 1020.7
20260902163103 68 167 2.0 8.0 0.00 0.01 0.00 79 1020.8
20260902162559 68 202 2.0 8.0 0.00 0.01 0.00 79 1021.0
20260902162058 68 0 0.0 6.0 0.00 0.01 0.00 78 1021.1
20260902161608 68 0 2.0 6.0 0.00 0.01 0.00 77 1021.1
20260902161100 69 157 1.0 4.0 0.00 0.01 0.00 79 1021.0
20260902160559 68 206 2.0 6.0 0.00 0.01 0.00 77 1020.9
20260902160107 68 170 0.0 6.0 0.00 0.01 0.00 79 1020.8
20260902155559 68 146 0.0 7.0 0.00 0.02 0.00 81 1020.8
20260902155103 68 164 2.0 7.0 0.00 0.02 0.00 81 1020.9
20260902154605 68 0 1.0 6.0 0.00 0.02 0.00 80 1021.1
20260902154100 68 165 1.0 5.0 0.00 0.02 0.00 80 1021.4
20260902153600 68 181 1.0 5.0 0.00 0.02 0.00 80 1021.5
20260902153102 68 178 1.0 7.0 0.00 0.02 0.00 80 1021.6
20260902152558 67 0 0.0 7.0 0.00 0.02 0.00 80 1021.6
20260902152059 67 220 2.0 7.0 0.00 0.02 0.00 80 1021.5
20260902151601 67 152 1.0 6.0 0.00 0.02 0.00 79 1021.5
20260902151100 68 150 2.0 7.0 0.00 0.02 0.00 80 1021.5
20260902150559 68 178 2.0 7.0 0.00 0.02 0.00 79 1021.5
20260902150104 68 172 1.0 6.0 0.00 0.02 0.00 80 1021.4
20260902145559 67 177 0.0 5.0 0.00 0.02 0.00 82 1021.4
20260902145059 67 174 1.0 5.0 0.00 0.02 0.00 80 1021.5
20260902144605 66 0 0.0 5.0 0.00 0.02 0.00 83 1021.6
20260902144059 66 148 0.0 3.0 0.00 0.02 0.00 85 1021.7
20260902143559 66 130 0.0 4.0 0.00 0.02 0.00 84 1021.6
20260902143105 66 0 1.0 4.0 0.00 0.02 0.00 82 1021.8
20260902142559 65 167 0.0 2.0 0.00 0.02 0.00 83 1021.8
20260902142102 65 0 0.0 2.0 0.00 0.02 0.00 83 1021.8
20260902141602 66 0 0.0 2.0 0.00 0.02 0.00 82 1021.8
20260902141059 66 269 0.0 3.0 0.00 0.02 0.00 82 1021.8
20260902140559 66 317 0.0 4.0 0.00 0.02 0.00 82 1021.6
20260902140104 67 0 1.0 7.0 0.00 0.02 0.00 81 1021.5
20260902135557 67 0 0.0 7.0 0.00 0.02 0.00 78 1021.3
20260902135058 67 164 3.0 7.0 0.00 0.02 0.00 78 1021.2
20260902134611 67 110 3.0 7.0 0.00 0.02 0.00 78 1021.1
20260902134058 67 168 0.0 6.0 0.00 0.02 0.00 78 1021.1
20260902133558 67 0 0.0 8.0 0.00 0.02 0.00 75 1021.1
20260902133104 68 226 2.0 8.0 0.00 0.02 0.00 77 1021.1
20260902132603 68 131 3.0 8.0 0.00 0.02 0.00 75 1021.0
20260902132058 68 168 2.0 6.0 0.00 0.02 0.00 76 1020.9
20260902131617 68 130 2.0 7.0 0.00 0.02 0.00 81 1020.8
20260902131101 67 127 1.0 7.0 0.00 0.02 0.00 81 1020.8
20260902130558 66 150 1.0 5.0 0.00 0.02 0.00 85 1021.0
20260902130103 66 184 0.0 4.0 0.00 0.02 0.00 86 1021.0
20260902125558 65 124 1.0 7.0 0.00 0.04 0.00 85 1020.9
20260902125103 65 147 2.0 7.0 0.00 0.04 0.00 87 1020.8
20260902124603 65 0 0.0 4.0 0.00 0.04 0.00 87 1020.8
20260902124100 65 0 0.0 4.0 0.00 0.04 0.00 86 1020.8
20260902123600 65 165 0.0 5.0 0.00 0.04 0.00 86 1020.7
20260902123103 65 0 1.0 9.0 0.00 0.04 0.00 86 1020.8
20260902122558 64 0 2.0 9.0 0.00 0.04 0.00 86 1020.6
20260902122101 64 120 1.0 6.0 0.00 0.04 0.00 87 1020.6
20260902121605 64 174 1.0 6.0 0.00 0.04 0.00 87 1020.6
20260902121101 64 198 0.0 2.0 0.00 0.04 0.00 87 1020.6
20260902120558 64 327 0.0 3.0 0.00 0.04 0.00 86 1020.8
20260902120109 63 0 0.0 3.0 0.00 0.04 0.00 86 1020.6
20260902115600 63 281 0.0 2.0 0.00 0.14 0.00 86 1020.7
20260902115104 63 0 0.0 5.0 0.00 0.14 0.00 86 1020.7
20260902114603 63 283 1.0 6.0 0.00 0.14 0.00 85 1020.7
20260902114058 63 0 1.0 6.0 0.00 0.14 0.00 85 1020.9
20260902113601 63 236 2.0 5.0 0.00 0.14 0.00 85 1021.0
20260902113112 63 253 1.0 5.0 0.00 0.14 0.00 86 1021.1
20260902112558 63 233 1.0 5.0 0.00 0.14 0.00 86 1021.1
20260902112057 63 0 2.0 5.0 0.00 0.14 0.00 86 1021.0
20260902111607 63 266 1.0 5.0 0.00 0.14 0.00 86 1021.1
20260902111101 62 0 2.0 5.0 0.00 0.14 0.00 86 1021.1
20260902110558 62 269 2.0 7.0 0.00 0.14 0.00 86 1021.1
20260902110100 62 174 2.0 7.0 0.00 0.14 0.00 87 1021.0
20260902105558 62 237 2.0 7.0 0.00 0.28 0.00 88 1021.1
20260902105057 62 0 1.0 5.0 0.00 0.28 0.00 88 1021.1
20260902104601 62 227 1.0 4.0 0.00 0.28 0.00 89 1020.9
20260902104100 62 274 1.0 3.0 0.00 0.28 0.00 89 1020.8
20260902103601 62 296 0.0 2.0 0.00 0.28 0.00 89 1021.0
20260902103100 62 0 0.0 2.0 0.00 0.28 0.00 89 1021.0
20260902102602 62 308 1.0 2.0 0.00 0.28 0.00 89 1020.9
20260902102100 62 276 0.0 2.0 0.00 0.28 0.00 89 1020.9
20260902101623 62 0 1.0 3.0 0.00 0.28 0.00 89 1021.0
20260902101059 62 0 0.0 6.0 0.00 0.28 0.00 89 1020.9
20260902100559 62 307 2.0 6.0 0.00 0.28 0.00 89 1020.7
20260902095603 62 297 1.0 3.0 0.00 0.30 0.00 88 1020.6
20260902095059 62 0 1.0 6.0 0.00 0.30 0.00 88 1020.5
20260902094605 62 225 0.0 6.0 0.00 0.30 0.00 87 1020.5
20260902094102 62 129 1.0 6.0 0.00 0.30 0.00 87 1020.5
20260902093601 63 280 0.0 3.0 0.00 0.30 0.00 87 1020.3
20260902093104 63 0 0.0 3.0 0.00 0.30 0.00 87 1020.5
20260902092602 63 291 1.0 4.0 0.00 0.30 0.00 86 1020.6
20260902092104 63 208 0.0 4.0 0.00 0.30 0.00 86 1020.4
20260902091606 63 245 1.0 7.0 0.00 0.30 0.00 86 1020.4
20260902091059 63 283 1.0 7.0 0.00 0.30 0.00 86 1020.4
20260902090603 63 235 1.0 7.0 0.00 0.30 0.00 85 1020.3
20260902090128 63 191 1.0 6.0 0.00 0.30 0.00 86 1020.3
20260902085603 63 176 1.0 6.0 0.00 0.30 0.00 86 1020.3
20260902085103 63 227 1.0 3.0 0.00 0.30 0.00 86 1020.3
20260902084605 63 293 1.0 6.0 0.00 0.30 0.00 86 1020.3
20260902084100 63 249 2.0 6.0 0.00 0.30 0.00 86 1020.2
20260902083559 63 238 0.0 4.0 0.00 0.30 0.00 86 1020.2
20260902083117 64 274 1.0 6.0 0.00 0.30 0.00 86 1020.2
20260902082600 64 199 1.0 6.0 0.00 0.30 0.00 85 1020.2
20260902082100 64 178 1.0 6.0 0.00 0.30 0.00 85 1020.1
20260902081608 64 257 0.0 4.0 0.00 0.30 0.00 85 1020.3
20260902081101 64 208 0.0 6.0 0.00 0.30 0.00 84 1020.3
20260902080559 64 278 1.0 6.0 0.00 0.30 0.00 83 1020.3
20260902080110 64 186 2.0 5.0 0.00 0.30 0.00 84 1020.4
20260902075602 64 239 1.0 5.0 0.00 0.30 0.00 84 1020.3
20260902075059 64 302 1.0 5.0 0.00 0.30 0.00 84 1020.3
20260902074606 65 283 0.0 5.0 0.00 0.30 0.00 84 1020.3
20260902074102 65 288 0.0 5.0 0.00 0.30 0.00 83 1020.3
20260902073559 65 212 1.0 5.0 0.00 0.30 0.00 83 1020.2
20260902073101 65 322 0.0 4.0 0.00 0.30 0.00 83 1020.3
20260902072600 65 207 0.0 9.0 0.00 0.30 0.00 82 1020.1
20260902072101 65 293 2.0 9.0 0.00 0.30 0.00 81 1020.1
20260902071606 65 262 1.0 6.0 0.00 0.30 0.00 81 1020.1
20260902071100 65 138 1.0 5.0 0.00 0.30 0.00 81 1020.0
20260902070600 65 224 2.0 6.0 0.00 0.30 0.00 81 1020.0
20260902070105 65 232 2.0 6.0 0.00 0.30 0.00 82 1019.8
20260902065559 65 201 2.0 8.0 0.00 0.30 0.00 83 1019.9
20260902065102 64 175 2.0 8.0 0.00 0.30 0.00 84 1020.0
20260902064607 64 132 1.0 5.0 0.00 0.30 0.00 85 1020.1
20260902064100 64 270 1.0 6.0 0.00 0.30 0.00 86 1020.2
20260902063559 64 245 1.0 6.0 0.00 0.30 0.00 86 1020.2
20260902063100 64 0 1.0 8.0 0.00 0.30 0.00 87 1020.2
20260902062603 64 254 2.0 8.0 0.00 0.30 0.00 88 1020.1
20260902062059 64 307 1.0 7.0 0.00 0.30 0.00 89 1020.1
20260902061624 63 258 1.0 7.0 0.00 0.30 0.00 90 1020.2
20260902061102 63 285 0.0 5.0 0.00 0.30 0.00 91 1020.2
20260902060600 63 270 1.0 5.0 0.00 0.30 0.00 91 1020.1
20260902060104 63 271 1.0 4.0 0.00 0.30 0.00 92 1020.2
20260902055600 63 238 0.0 6.0 0.00 0.30 0.00 92 1020.2
20260902055059 63 179 1.0 6.0 0.00 0.30 0.00 92 1020.2
20260902054605 63 257 0.0 3.0 0.00 0.30 0.00 92 1020.2
20260902054059 63 0 0.0 2.0 0.00 0.30 0.00 92 1020.1
20260902053603 63 2 0.0 2.0 0.00 0.30 0.00 92 1020.0
20260902053104 63 0 0.0 2.0 0.00 0.30 0.00 92 1020.1
20260902052559 63 0 0.0 2.0 0.00 0.30 0.00 93 1019.9
20260902052059 63 311 0.0 2.0 0.00 0.30 0.00 92 1019.9
20260902051605 63 0 0.0 2.0 0.00 0.30 0.00 92 1019.8
20260902051100 64 274 0.0 2.0 0.00 0.30 0.00 92 1019.8
20260902050601 64 286 0.0 2.0 0.00 0.30 0.00 92 1019.7
20260902050107 64 301 1.0 2.0 0.00 0.30 0.00 92 1019.7
20260902045602 64 293 0.0 3.0 0.00 0.30 0.00 92 1019.7
20260902045100 64 0 0.0 3.0 0.00 0.30 0.00 92 1019.7
20260902044605 64 0 1.0 2.0 0.00 0.30 0.00 92 1019.7
20260902044100 64 263 0.0 2.0 0.00 0.30 0.00 92 1019.6
20260902043559 64 0 0.0 1.0 0.00 0.30 0.00 92 1019.6
20260902043103 64 0 0.0 3.0 0.00 0.30 0.00 92 1019.6
20260902042559 64 0 0.0 3.0 0.00 0.30 0.00 92 1019.6
20260902042059 64 333 0.0 2.0 0.00 0.30 0.00 92 1019.5
20260902041610 64 0 0.0 3.0 0.00 0.30 0.00 91 1019.6
20260902041059 64 0 1.0 3.0 0.00 0.30 0.00 91 1019.6
20260902040559 64 0 0.0 2.0 0.00 0.30 0.00 91 1019.5
20260902040106 64 337 0.0 4.0 0.00 0.30 0.00 91 1019.4
20260902035558 64 0 1.0 6.0 0.00 0.30 0.30 91 1019.4
20260902035059 64 3 1.0 6.0 0.00 0.30 0.30 91 1019.4
20260902034603 64 285 1.0 7.0 0.00 0.30 0.30 91 1019.3
20260902034058 64 176 2.0 7.0 0.00 0.30 0.30 92 1019.3
20260902033558 64 280 1.0 6.0 0.00 0.30 0.30 92 1019.2
20260902033114 64 238 1.0 6.0 0.00 0.30 0.30 92 1019.2
20260902032600 64 0 2.0 8.0 0.00 0.30 0.30 92 1019.3
20260902032059 64 0 2.0 8.0 0.00 0.30 0.30 92 1019.3
20260902031606 64 0 4.0 12.0 0.00 0.30 0.30 93 1019.3
20260902031059 64 143 1.0 12.0 0.00 0.30 0.30 93 1019.3
20260902030602 64 279 1.0 7.0 0.00 0.30 0.30 93 1019.4
20260902030116 64 0 0.0 1.0 0.00 0.30 0.30 93 1019.4
20260902025559 64 0 0.0 2.0 0.00 0.30 0.30 93 1019.5
20260902025100 64 0 0.0 2.0 0.00 0.30 0.30 93 1019.5
20260902024620 64 0 0.0 2.0 0.00 0.30 0.30 93 1019.5
20260902024059 64 271 0.0 2.0 0.00 0.30 0.30 93 1019.6
20260902023559 64 252 0.0 4.0 0.00 0.30 0.30 93 1019.5
20260902023114 64 0 1.0 5.0 0.00 0.30 0.30 93 1019.6
20260902022600 64 0 0.0 5.0 0.00 0.30 0.30 93 1019.5
20260902022101 64 0 0.0 3.0 0.00 0.30 0.30 93 1019.5
20260902021619 64 300 1.0 3.0 0.00 0.30 0.30 93 1019.6
20260902021058 64 255 1.0 4.0 0.00 0.30 0.30 93 1019.5
20260902020559 64 255 0.0 6.0 0.00 0.30 0.30 93 1019.4
20260902015559 64 250 1.0 5.0 0.00 0.30 0.30 94 1019.3
20260902015058 64 276 0.0 4.0 0.00 0.30 0.30 94 1019.1
20260902014603 64 265 1.0 4.0 0.00 0.30 0.30 94 1019.0
20260902014058 64 0 1.0 4.0 0.00 0.30 0.30 94 1018.8
20260902013601 64 354 1.0 4.0 0.00 0.30 0.30 94 1018.7
20260902013104 64 264 0.0 4.0 0.00 0.30 0.30 94 1018.7
20260902012559 64 297 2.0 4.0 0.00 0.30 0.30 94 1018.6
20260902012501 64 257 1.0 3.0 0.00 0.30 0.30 94 1018.7
20260902011605 64 315 0.0 3.0 0.00 0.30 0.30 94 1018.7
20260902011058 64 0 0.0 3.0 0.00 0.30 0.30 94 1018.8
20260902010559 64 303 1.0 3.0 0.00 0.30 0.30 93 1018.9
20260902010105 64 0 0.0 2.0 0.00 0.30 0.30 93 1019.0
20260902005558 64 0 0.0 2.0 0.00 0.30 0.30 93 1018.9
20260902005103 64 325 0.0 2.0 0.00 0.30 0.30 93 1018.8
20260902004607 64 300 0.0 1.0 0.00 0.30 0.30 94 1018.7
20260902004058 64 0 0.0 2.0 0.00 0.30 0.30 93 1018.9
20260902003558 64 278 0.0 3.0 0.00 0.30 0.30 93 1018.8
20260902003104 64 0 1.0 3.0 0.00 0.30 0.30 93 1018.9
20260902002600 64 288 0.0 2.0 0.00 0.30 0.30 93 1018.9
20260902002059 64 331 0.0 2.0 0.00 0.30 0.30 93 1018.8
20260902001605 64 0 0.0 2.0 0.00 0.30 0.30 93 1018.8
20260902001059 64 274 0.0 2.0 0.00 0.30 0.30 93 1018.7
20260902000601 64 0 0.0 3.0 0.00 0.30 0.30 93 1018.7
20260902000104 64 288 1.0 3.0 0.00 0.30 0.30 93 1018.6
20260901235557 64 356 0.0 3.0 0.00 0.30 0.30 93 1018.5
20260901235100 64 0 0.0 3.0 0.00 0.30 0.30 93 1018.4
20260901234617 65 45 0.0 4.0 0.00 0.30 0.30 93 1018.3
20260901234101 64 280 0.0 4.0 0.00 0.30 0.30 93 1018.4
20260901233558 65 13 1.0 3.0 0.00 0.30 0.30 93 1018.4
20260901233104 65 303 0.0 4.0 0.00 0.30 0.30 93 1018.2
20260901232600 64 82 1.0 4.0 0.00 0.30 0.30 93 1018.2
20260901232100 65 279 2.0 6.0 0.00 0.30 0.30 93 1018.1
20260901231602 65 301 1.0 6.0 0.00 0.30 0.30 93 1018.2
20260901231059 65 253 2.0 5.0 0.00 0.30 0.30 93 1018.3
20260901230600 65 262 1.0 3.0 0.00 0.30 0.30 93 1018.2
20260901230138 65 281 0.0 5.0 0.00 0.30 0.30 93 1018.2
20260901225600 65 316 1.0 5.0 0.00 0.30 0.30 93 1018.1
20260901225058 65 269 2.0 5.0 0.00 0.30 0.30 93 1018.1
20260901224602 65 242 1.0 5.0 0.00 0.30 0.30 93 1018.0
20260901224057 65 280 2.0 5.0 0.00 0.30 0.30 93 1018.1
20260901223558 65 314 1.0 3.0 0.00 0.30 0.30 93 1018.2
20260901223119 65 253 1.0 4.0 0.00 0.30 0.30 93 1018.2
20260901222559 65 301 1.0 4.0 0.00 0.30 0.30 93 1018.1
20260901222059 65 319 1.0 4.0 0.00 0.30 0.30 93 1018.1
20260901221604 65 0 1.0 3.0 0.00 0.30 0.30 92 1018.0
20260901221100 65 0 1.0 4.0 0.00 0.30 0.30 92 1018.2